GPS BIII-5 (PRN 11)

Last updated on Tue Jul 01 2025 00:03:14 GMT+0000 (Coordinated Universal Time)

1 48859U 21054A 25181.49562323 -.00000103 00000+0 00000+0 0 9990 2 48859 55.3119 346.5824 0020367 225.8408 124.0433 2.00563036 29697
UTC large
Height (km)
Speed (km/s)
/
Latitude / Longitude
Inclination (degrees)
Orbital Period (minutes)
Azimuth
Elevation
Range (km)
Doppler Factor

Next 0 passes for location: London (51.5072 / 0.1276)

Sorry there are no passes over London.